GW1010 Weather Reports


Display with metric or nautical units.
time (UTC)temp
F
wind
direction
speed
MPH
gust
MPH
rain 1hr
in
rain 24hr
in
rain mn
in
humidity
%
barometer
mb
20260507075529 52 0 0.0 0.0 0.00 0.00 0.00 92 1019.7
20260507075029 52 0 0.0 0.0 0.00 0.00 0.00 92 1019.7
20260507074546 52 0 0.0 0.0 0.00 0.00 0.00 93 1019.6
20260507074028 51 0 0.0 0.0 0.00 0.00 0.00 92 1019.7
20260507073529 51 0 0.0 0.0 0.00 0.00 0.00 92 1019.7
20260507073104 51 0 0.0 0.0 0.00 0.00 0.00 91 1019.8
20260507072529 51 0 0.0 0.0 0.00 0.00 0.00 91 1019.7
20260507072027 51 0 0.0 0.0 0.00 0.00 0.00 91 1019.7
20260507071544 51 0 0.0 0.0 0.00 0.00 0.00 90 1019.6
20260507071025 51 0 0.0 0.0 0.00 0.00 0.00 90 1019.6
20260507070529 51 0 0.0 0.0 0.00 0.00 0.00 90 1019.6
20260507070043 52 0 0.0 0.0 0.00 0.00 0.00 90 1019.5
20260507065530 52 0 0.0 0.0 0.00 0.00 0.00 90 1019.5
20260507065030 52 0 0.0 0.0 0.00 0.00 0.00 89 1019.6
20260507064548 52 0 0.0 0.0 0.00 0.00 0.00 89 1019.6
20260507064028 52 0 0.0 0.0 0.00 0.00 0.00 89 1019.5
20260507063528 52 0 0.0 0.0 0.00 0.00 0.00 89 1019.5
20260507063052 52 0 0.0 0.0 0.00 0.00 0.00 89 1019.5
20260507062531 53 0 0.0 0.0 0.00 0.00 0.00 88 1019.5
20260507062028 53 0 0.0 0.0 0.00 0.00 0.00 88 1019.4
20260507061541 53 0 0.0 0.0 0.00 0.00 0.00 88 1019.4
20260507061027 53 0 0.0 0.0 0.00 0.00 0.00 88 1019.2
20260507060528 53 0 0.0 0.0 0.00 0.00 0.00 88 1019.2
20260507060044 53 0 0.0 0.0 0.00 0.00 0.00 87 1019.3
20260507055529 54 0 0.0 0.0 0.00 0.00 0.00 87 1019.3
20260507055028 54 0 0.0 0.0 0.00 0.00 0.00 87 1019.3
20260507054542 54 0 0.0 0.0 0.00 0.00 0.00 86 1019.2
20260507054032 54 0 0.0 0.0 0.00 0.00 0.00 86 1019.2
20260507053530 55 0 0.0 0.0 0.00 0.00 0.00 85 1019.1
20260507053042 55 0 0.0 0.0 0.00 0.00 0.00 85 1019.1
20260507052528 55 0 0.0 0.0 0.00 0.00 0.00 85 1019.2
20260507052031 56 0 0.0 0.0 0.00 0.00 0.00 84 1019.1
20260507051542 56 0 0.0 0.0 0.00 0.00 0.00 84 1019.2
20260507051032 56 0 0.0 0.0 0.00 0.00 0.00 85 1019.2
20260507050528 56 0 0.0 0.0 0.00 0.00 0.00 84 1019.2
20260507050043 56 0 0.0 0.0 0.00 0.00 0.00 82 1019.1
20260507045528 56 0 0.0 0.0 0.00 0.00 0.00 82 1019.2
20260507045028 57 0 0.0 0.0 0.00 0.00 0.00 81 1019.0
20260507044541 57 0 0.0 0.0 0.00 0.00 0.00 80 1018.9
20260507044030 58 0 0.0 0.0 0.00 0.00 0.00 79 1018.9
20260507043528 58 0 0.0 0.0 0.00 0.00 0.00 80 1018.7
20260507043047 58 0 0.0 0.0 0.00 0.00 0.00 77 1018.7
20260507042527 59 0 0.0 0.0 0.00 0.00 0.00 78 1018.6
20260507042028 59 0 0.0 0.0 0.00 0.00 0.00 77 1018.6
20260507041547 60 0 0.0 0.0 0.00 0.00 0.00 76 1018.6
20260507041028 60 0 0.0 0.0 0.00 0.00 0.00 76 1018.5
20260507040530 60 0 0.0 0.0 0.00 0.00 0.00 75 1018.4
20260507040044 60 0 0.0 0.0 0.00 0.00 0.00 74 1018.3
20260507035528 61 0 0.0 0.0 0.00 0.00 0.00 74 1018.3
20260507035028 61 0 0.0 0.0 0.00 0.00 0.00 73 1018.3
20260507034557 62 0 0.0 0.0 0.00 0.00 0.00 72 1018.3
20260507034029 62 0 0.0 0.0 0.00 0.00 0.00 72 1018.1
20260507033529 62 0 0.0 0.0 0.00 0.00 0.00 71 1018.1
20260507033101 63 0 0.0 0.0 0.00 0.00 0.00 70 1018.1
20260507032528 63 0 0.0 0.0 0.00 0.00 0.00 70 1018.1
20260507032028 63 0 0.0 0.0 0.00 0.00 0.00 69 1018.1
20260507031543 64 0 0.0 0.0 0.00 0.00 0.00 68 1018.0
20260507031028 64 0 0.0 0.0 0.00 0.00 0.00 68 1018.0
20260507030529 65 0 0.0 0.0 0.00 0.00 0.00 66 1017.8
20260507030042 65 0 0.0 0.0 0.00 0.00 0.00 65 1017.7
20260507025528 66 0 0.0 1.0 0.00 0.00 0.00 64 1017.7
20260507025028 66 0 0.0 4.0 0.00 0.00 0.00 63 1017.7
20260507024551 66 0 0.0 4.0 0.00 0.00 0.00 62 1017.5
20260507024028 67 139 0.0 4.0 0.00 0.00 0.00 61 1017.3
20260507023528 67 0 1.0 4.0 0.00 0.00 0.00 60 1017.3
20260507023044 68 201 1.0 4.0 0.00 0.00 0.00 60 1017.3
20260507022528 68 0 1.0 4.0 0.00 0.00 0.00 59 1017.3
20260507022032 68 0 0.0 3.0 0.00 0.00 0.00 59 1017.3
20260507021542 69 123 1.0 3.0 0.00 0.00 0.00 58 1017.3
20260507021028 69 205 1.0 6.0 0.00 0.00 0.00 58 1017.3
20260507020529 69 0 0.0 6.0 0.00 0.00 0.00 57 1017.2
20260507020044 70 148 0.0 4.0 0.00 0.00 0.00 57 1017.2
20260507015528 70 250 1.0 4.0 0.00 0.00 0.00 56 1017.3
20260507015028 70 240 1.0 4.0 0.00 0.00 0.00 55 1017.2
20260507014542 71 224 0.0 4.0 0.00 0.00 0.00 55 1017.2
20260507014028 71 124 1.0 6.0 0.00 0.00 0.00 54 1017.2
20260507013528 72 0 0.0 6.0 0.00 0.00 0.00 54 1017.1
20260507013050 72 231 2.0 7.0 0.00 0.00 0.00 52 1017.1
20260507012529 73 152 2.0 7.0 0.00 0.00 0.00 51 1017.2
20260507012029 74 267 1.0 4.0 0.00 0.00 0.00 49 1017.1
20260507011543 76 218 0.0 3.0 0.00 0.00 0.00 48 1017.1
20260507011027 77 215 1.0 3.0 0.00 0.00 0.00 47 1017.1
20260507010530 77 222 1.0 5.0 0.00 0.00 0.00 47 1017.0
20260507010048 77 110 0.0 5.0 0.00 0.00 0.00 47 1017.0
20260507005528 77 332 2.0 5.0 0.00 0.00 0.00 47 1016.9
20260507005029 77 0 1.0 7.0 0.00 0.00 0.00 46 1016.8
20260507004542 78 170 2.0 7.0 0.00 0.00 0.00 46 1016.8
20260507004028 78 252 1.0 6.0 0.00 0.00 0.00 45 1016.8
20260507003529 78 253 1.0 5.0 0.00 0.00 0.00 45 1016.8
20260507003042 78 283 1.0 7.0 0.00 0.00 0.00 45 1016.8
20260507002528 79 241 1.0 7.0 0.00 0.00 0.00 44 1016.7
20260507002029 79 245 1.0 4.0 0.00 0.00 0.00 44 1016.6
20260507001600 79 32 1.0 5.0 0.00 0.00 0.00 44 1016.6
20260507001028 80 240 1.0 6.0 0.00 0.00 0.00 44 1016.6
20260507000528 80 263 2.0 6.0 0.00 0.00 0.00 43 1016.5
20260507000047 80 250 1.0 6.0 0.00 0.00 0.00 43 1016.4
20260506235530 81 266 1.0 6.0 0.00 0.00 0.00 43 1016.5
20260506235028 81 255 1.0 6.0 0.00 0.00 0.00 44 1016.4
20260506234552 81 86 2.0 6.0 0.00 0.00 0.00 43 1016.5
20260506234028 81 233 1.0 6.0 0.00 0.00 0.00 43 1016.5
20260506233529 81 67 2.0 7.0 0.00 0.00 0.00 43 1016.4
20260506233042 82 56 2.0 7.0 0.00 0.00 0.00 42 1016.5
20260506232530 82 136 2.0 5.0 0.00 0.00 0.00 42 1016.5
20260506232029 82 82 1.0 6.0 0.00 0.00 0.00 42 1016.5
20260506231540 82 242 2.0 7.0 0.00 0.00 0.00 43 1016.5
20260506231029 82 150 2.0 7.0 0.00 0.00 0.00 43 1016.6
20260506230528 82 79 2.0 7.0 0.00 0.00 0.00 43 1016.6
20260506230039 82 223 1.0 7.0 0.00 0.00 0.00 43 1016.7
20260506225531 82 249 2.0 7.0 0.00 0.00 0.00 43 1016.7
20260506225028 82 202 2.0 6.0 0.00 0.00 0.00 43 1016.8
20260506224557 82 245 2.0 5.0 0.00 0.00 0.00 42 1017.0
20260506224027 82 217 2.0 5.0 0.00 0.00 0.00 42 1017.1
20260506223527 82 242 1.0 6.0 0.00 0.00 0.00 43 1017.1
20260506223042 81 263 2.0 6.0 0.00 0.00 0.00 43 1017.2
20260506222529 82 134 2.0 6.0 0.00 0.00 0.00 42 1017.2
20260506222029 82 210 1.0 6.0 0.00 0.00 0.00 42 1017.3
20260506221539 82 224 1.0 6.0 0.00 0.00 0.00 42 1017.3
20260506221028 82 289 2.0 6.0 0.00 0.00 0.00 43 1017.4
20260506220528 82 82 2.0 5.0 0.00 0.00 0.00 42 1017.4
20260506220051 83 130 1.0 5.0 0.00 0.00 0.00 41 1017.5
20260506215528 82 73 1.0 4.0 0.00 0.00 0.00 42 1017.6
20260506215028 81 228 1.0 5.0 0.00 0.00 0.00 37 1017.7
20260506214537 81 323 2.0 7.0 0.00 0.00 0.00 39 1017.8
20260506214033 81 289 2.0 7.0 0.00 0.00 0.00 38 1017.8
20260506213528 81 46 1.0 6.0 0.00 0.00 0.00 40 1017.8
20260506213044 81 341 1.0 5.0 0.00 0.00 0.00 39 1017.8
20260506212529 81 318 2.0 5.0 0.00 0.00 0.00 39 1017.8
20260506212029 81 167 1.0 4.0 0.00 0.00 0.00 41 1017.8
20260506211551 80 217 0.0 5.0 0.00 0.00 0.00 41 1017.9
20260506211028 80 321 1.0 5.0 0.00 0.00 0.00 41 1018.0
20260506210530 80 67 2.0 5.0 0.00 0.00 0.00 40 1018.0
20260506210044 80 293 2.0 4.0 0.00 0.00 0.00 44 1018.0
20260506205528 79 300 1.0 4.0 0.00 0.00 0.00 41 1018.1
20260506205028 79 306 2.0 6.0 0.00 0.00 0.00 43 1018.1
20260506204542 79 0 1.0 6.0 0.00 0.00 0.00 40 1018.1
20260506204031 80 284 1.0 6.0 0.00 0.00 0.00 42 1018.1
20260506203528 79 236 1.0 6.0 0.00 0.00 0.00 41 1018.2
20260506203036 79 326 2.0 6.0 0.00 0.00 0.00 43 1018.3
20260506202529 78 232 1.0 4.0 0.00 0.00 0.00 42 1018.3
20260506202029 79 347 1.0 4.0 0.00 0.00 0.00 41 1018.4
20260506201542 78 233 1.0 6.0 0.00 0.00 0.00 42 1018.4
20260506201028 79 297 1.0 6.0 0.00 0.00 0.00 43 1018.4
20260506200531 78 0 2.0 7.0 0.00 0.00 0.00 42 1018.5
20260506200041 78 310 2.0 7.0 0.00 0.00 0.00 44 1018.5
20260506195531 79 27 1.0 5.0 0.00 0.00 0.00 44 1018.6
20260506195028 79 244 2.0 4.0 0.00 0.00 0.00 44 1018.6
20260506194544 78 273 0.0 4.0 0.00 0.00 0.00 45 1018.6
20260506194029 77 120 0.0 6.0 0.00 0.00 0.00 47 1018.7
20260506193528 77 307 2.0 6.0 0.00 0.00 0.00 47 1018.7
20260506193045 77 0 1.0 4.0 0.00 0.00 0.00 47 1018.7
20260506192528 77 0 0.0 5.0 0.00 0.00 0.00 47 1018.7
20260506192028 76 106 1.0 5.0 0.00 0.00 0.00 49 1018.9
20260506191537 76 302 1.0 4.0 0.00 0.00 0.00 47 1018.9
20260506191029 76 0 0.0 5.0 0.00 0.00 0.00 47 1019.0
20260506190529 76 210 1.0 5.0 0.00 0.00 0.00 50 1019.1
20260506190044 75 0 0.0 4.0 0.00 0.00 0.00 49 1019.2
20260506185530 75 315 1.0 5.0 0.00 0.00 0.00 48 1019.4
20260506185030 75 315 2.0 5.0 0.00 0.00 0.00 50 1019.4
20260506184542 75 0 1.0 3.0 0.00 0.00 0.00 49 1019.4
20260506184029 75 235 0.0 3.0 0.00 0.00 0.00 48 1019.4
20260506183531 74 146 0.0 5.0 0.00 0.00 0.00 52 1019.5
20260506183043 73 61 0.0 5.0 0.00 0.00 0.00 53 1019.6
20260506182528 73 312 0.0 3.0 0.00 0.00 0.00 57 1019.6
20260506182028 72 226 0.0 3.0 0.00 0.00 0.00 55 1019.7
20260506181558 71 0 1.0 3.0 0.00 0.00 0.00 57 1019.8
20260506181029 71 0 1.0 6.0 0.00 0.00 0.00 56 1019.8
20260506180528 71 314 0.0 6.0 0.00 0.00 0.00 57 1019.9
20260506180037 70 105 0.0 3.0 0.00 0.00 0.00 62 1019.9
20260506175530 69 0 0.0 5.0 0.00 0.00 0.00 61 1020.0
20260506175028 68 0 2.0 5.0 0.00 0.00 0.00 62 1020.0
20260506174541 69 311 1.0 5.0 0.00 0.00 0.00 61 1020.0
20260506174029 69 188 0.0 2.0 0.00 0.00 0.00 62 1020.0
20260506173529 68 0 0.0 3.0 0.00 0.00 0.00 64 1020.1
20260506173116 67 0 0.0 3.0 0.00 0.00 0.00 65 1020.1
20260506172529 66 321 1.0 3.0 0.00 0.00 0.00 65 1020.1
20260506172028 65 0 1.0 4.0 0.00 0.00 0.00 67 1020.2
20260506171551 65 232 1.0 4.0 0.00 0.00 0.00 69 1020.2
20260506171027 64 0 1.0 4.0 0.00 0.00 0.00 69 1020.2
20260506170529 64 340 1.0 3.0 0.00 0.00 0.00 69 1020.2
20260506170039 63 343 0.0 3.0 0.00 0.00 0.00 71 1020.3
20260506165528 63 300 0.0 4.0 0.00 0.00 0.00 72 1020.4
20260506165029 62 284 0.0 4.0 0.00 0.00 0.00 73 1020.4
20260506164543 61 335 0.0 5.0 0.00 0.00 0.00 74 1020.4
20260506164030 61 0 0.0 5.0 0.00 0.00 0.00 76 1020.4
20260506163529 60 336 1.0 4.0 0.00 0.00 0.00 77 1020.5
20260506163041 59 316 1.0 3.0 0.00 0.00 0.00 78 1020.6
20260506162528 59 0 1.0 3.0 0.00 0.00 0.00 79 1020.7
20260506162032 58 356 0.0 4.0 0.00 0.00 0.00 80 1020.7
20260506161543 57 0 0.0 4.0 0.00 0.00 0.00 83 1020.7
20260506161031 57 0 0.0 4.0 0.00 0.00 0.00 85 1020.8
20260506160531 56 0 0.0 3.0 0.00 0.00 0.00 86 1020.8
20260506160058 55 0 0.0 3.0 0.00 0.00 0.00 87 1020.8
20260506155558 54 312 1.0 3.0 0.00 0.00 0.00 88 1020.9
20260506155029 53 0 0.0 0.0 0.00 0.00 0.00 90 1020.9
20260506154547 53 0 0.0 0.0 0.00 0.00 0.00 91 1021.0
20260506154029 52 0 0.0 0.0 0.00 0.00 0.00 93 1021.0
20260506153529 51 0 0.0 0.0 0.00 0.00 0.00 94 1021.1
20260506153036 51 0 0.0 1.0 0.00 0.00 0.00 93 1021.1
20260506152527 50 0 0.0 1.0 0.00 0.00 0.00 94 1021.2
20260506152029 50 0 0.0 1.0 0.00 0.00 0.00 94 1021.1
20260506151545 50 0 0.0 0.0 0.00 0.00 0.00 95 1021.1
20260506151028 50 0 0.0 0.0 0.00 0.00 0.00 95 1021.2
20260506150527 49 0 0.0 0.0 0.00 0.00 0.00 95 1021.2
20260506150045 49 0 0.0 0.0 0.00 0.00 0.00 95 1021.2
20260506145529 49 0 0.0 0.0 0.00 0.00 0.00 96 1021.3
20260506145029 48 0 0.0 0.0 0.00 0.00 0.00 96 1021.3
20260506144545 48 0 0.0 0.0 0.00 0.00 0.00 96 1021.3
20260506144031 48 0 0.0 0.0 0.00 0.00 0.00 96 1021.3
20260506143529 48 0 0.0 0.0 0.00 0.00 0.00 96 1021.2
20260506143038 47 0 0.0 0.0 0.00 0.00 0.00 96 1021.2
20260506142528 47 0 0.0 0.0 0.00 0.00 0.00 96 1021.0
20260506142027 46 0 0.0 0.0 0.00 0.00 0.00 96 1021.0
20260506141542 46 0 0.0 0.0 0.00 0.00 0.00 96 1021.0
20260506141029 46 0 0.0 0.0 0.00 0.00 0.00 96 1020.9
20260506140529 45 0 0.0 0.0 0.00 0.00 0.00 96 1020.9
20260506140043 45 0 0.0 0.0 0.00 0.00 0.00 96 1020.9
20260506135528 45 0 0.0 0.0 0.00 0.00 0.00 96 1020.7
20260506135028 45 0 0.0 0.0 0.00 0.00 0.00 96 1020.6
20260506134548 45 0 0.0 0.0 0.00 0.00 0.00 96 1020.5
20260506134029 45 0 0.0 0.0 0.00 0.00 0.00 96 1020.5
20260506133531 44 0 0.0 0.0 0.00 0.00 0.00 96 1020.5
20260506133041 44 0 0.0 0.0 0.00 0.00 0.00 96 1020.4
20260506132529 44 0 0.0 0.0 0.00 0.00 0.00 96 1020.3
20260506132032 44 0 0.0 0.0 0.00 0.00 0.00 96 1020.3
20260506131558 43 0 0.0 0.0 0.00 0.00 0.00 96 1020.2
20260506131030 43 0 0.0 0.0 0.00 0.00 0.00 96 1020.4
20260506130532 43 0 0.0 0.0 0.00 0.00 0.00 96 1020.4
20260506130040 43 0 0.0 0.0 0.00 0.00 0.00 96 1020.3
20260506125526 42 0 0.0 0.0 0.00 0.00 0.00 96 1020.3
20260506125028 42 0 0.0 0.0 0.00 0.00 0.00 96 1020.3
20260506124542 42 0 0.0 0.0 0.00 0.00 0.00 96 1020.3
20260506124028 42 0 0.0 0.0 0.00 0.00 0.00 96 1020.2
20260506123534 42 0 0.0 0.0 0.00 0.00 0.00 95 1020.2
20260506123044 42 0 0.0 0.0 0.00 0.00 0.00 95 1020.2
20260506122529 42 0 0.0 0.0 0.00 0.00 0.00 96 1020.1
20260506122030 42 0 0.0 0.0 0.00 0.00 0.00 96 1020.2
20260506121548 42 0 0.0 0.0 0.00 0.00 0.00 95 1020.0
20260506121026 42 0 0.0 0.0 0.00 0.00 0.00 95 1020.0
20260506120532 42 0 0.0 0.0 0.00 0.00 0.00 95 1019.9
20260506120053 42 0 0.0 0.0 0.00 0.00 0.00 95 1019.8
20260506115531 42 0 0.0 0.0 0.00 0.00 0.00 95 1019.7
20260506115028 42 0 0.0 0.0 0.00 0.00 0.00 95 1019.7
20260506114546 42 0 0.0 0.0 0.00 0.00 0.00 95 1019.7
20260506114031 42 0 0.0 0.0 0.00 0.00 0.00 95 1019.8
20260506113529 42 0 0.0 0.0 0.00 0.00 0.00 95 1019.7
20260506113044 42 0 0.0 0.0 0.00 0.00 0.00 95 1019.7
20260506112529 42 0 0.0 0.0 0.00 0.00 0.00 95 1019.7
20260506112029 42 0 0.0 0.0 0.00 0.00 0.00 95 1019.8
20260506111538 42 0 0.0 0.0 0.00 0.00 0.00 95 1019.8
20260506111033 42 0 0.0 0.0 0.00 0.00 0.00 95 1019.7
20260506110530 43 0 0.0 0.0 0.00 0.00 0.00 95 1019.7
20260506110041 43 0 0.0 0.0 0.00 0.00 0.00 95 1019.7
20260506105526 43 0 0.0 0.0 0.00 0.00 0.00 95 1019.7
20260506105030 43 0 0.0 0.0 0.00 0.00 0.00 95 1019.7
20260506104535 43 0 0.0 0.0 0.00 0.00 0.00 95 1019.7
20260506104030 43 0 0.0 0.0 0.00 0.00 0.00 95 1019.6
20260506103527 43 0 0.0 0.0 0.00 0.00 0.00 95 1019.7
20260506103044 43 0 0.0 0.0 0.00 0.00 0.00 95 1019.7
20260506102528 44 0 0.0 0.0 0.00 0.00 0.00 95 1019.8
20260506102026 44 0 0.0 0.0 0.00 0.00 0.00 95 1019.8
20260506101542 44 0 0.0 0.0 0.00 0.00 0.00 95 1019.8
20260506101028 44 0 0.0 0.0 0.00 0.00 0.00 95 1019.7
20260506100534 44 0 0.0 0.0 0.00 0.00 0.00 95 1019.7
20260506100040 44 0 0.0 0.0 0.00 0.00 0.00 95 1019.7
20260506095529 44 0 0.0 0.0 0.00 0.00 0.00 94 1019.6
20260506095026 44 0 0.0 0.0 0.00 0.00 0.00 94 1019.7
20260506094547 45 0 0.0 0.0 0.00 0.00 0.00 95 1019.6
20260506094031 45 0 0.0 0.0 0.00 0.00 0.00 94 1019.6
20260506093527 45 0 0.0 0.0 0.00 0.00 0.00 94 1019.6
20260506093039 45 0 0.0 0.0 0.00 0.00 0.00 94 1019.6
20260506092527 45 0 0.0 0.0 0.00 0.00 0.00 94 1019.6
20260506092029 45 0 0.0 0.0 0.00 0.00 0.00 94 1019.5
20260506091543 45 0 0.0 0.0 0.00 0.00 0.00 94 1019.5
20260506091032 46 0 0.0 0.0 0.00 0.00 0.00 95 1019.5
20260506090528 46 0 0.0 1.0 0.00 0.00 0.00 95 1019.5
20260506090041 46 0 0.0 2.0 0.00 0.00 0.00 95 1019.5
20260506085528 46 0 0.0 2.0 0.00 0.00 0.00 95 1019.4
20260506085029 46 0 0.0 0.0 0.00 0.00 0.00 95 1019.4
20260506084544 46 0 0.0 0.0 0.00 0.00 0.00 95 1019.4
20260506084029 46 0 0.0 0.0 0.00 0.00 0.00 95 1019.4
20260506083528 46 0 0.0 0.0 0.00 0.00 0.00 94 1019.5
20260506083041 46 0 0.0 0.0 0.00 0.00 0.00 94 1019.5
20260506082532 46 0 0.0 0.0 0.00 0.00 0.00 95 1019.5
20260506082032 45 0 0.0 0.0 0.00 0.00 0.00 95 1019.4
20260506081544 45 0 0.0 0.0 0.00 0.00 0.00 94 1019.4
20260506081031 45 0 0.0 0.0 0.00 0.00 0.00 94 1019.5
20260506080529 45 0 0.0 0.0 0.00 0.00 0.00 94 1019.4